Starlink 32175

operational
NORAD ID: 60339 Int'l Des: 2024-136 Owner: SPXS Country: US Constellation: starlink
LEOCIRCULAR

关于 Starlink 32175

正在加载描述...

实时位置

正在加载3D地球...

即将过境

高度历史

Altitude vs Time

uPlot chart will show altitude changes over time

两行轨道根数

1 60339U 24136L 25307.69431480 -.00000495 00000-0 -45822-5 0 9995
2 60339 53.1614 300.9330 0001277 105.6388 254.4754 15.30186272 70372
Epoch: Nov 3, 2025 • Age: 11 hours

当前状态

高度 479.7 km
速度 7.63 km/s
星下点 -14.63°S, 169.38°W
发射日期 Aug 2, 2024
运行时间 1.2 years
类型 internet

技术详情

分类 Payload
质量 730.00 kg
干质量 700.00 kg
总质量 730.00 kg
长度 0.30 m
直径 4.10 m
跨度 29.00 m
形状 Box + pan
制造商 SPXS
平台类型 Starlink V2M
阶段状态 In Orbit
所有者/国家 SPXS/US

大型星座

Loading constellations...